www.pogodaiklimat.ru

Погода и климат >> Архив погоды >> Россия >> Курганская область >> Целинное


ПОГОДА в Целинном

  • Прогноз погоды в Целинном
  • Монитор погоды в Целинном

АРХИВ ПОГОДЫ в Целинном

Время (UTC), дата Ветер
(напр.,м/с)
 
Видим.   Явления Облачность Т
(С)
Тd
(С)
f
(%)
Тe
(С)
Тes
(С)
Комфортность P
(гПа)
Po
(гПа)
Тmin
(С)
Tmax
(С)
R
(мм)
R24
(мм)
S
(см)
03 18.08 штиль 0 50 км 10/1 600 м
[Sc Ac trans Ci]
+21.1 +15.0 68 +24 +26 комфорт 1018.6 1001.7 +12.5
09 18.08 СЗ 5
{11}
50 км 10/0
[Ac trans Ci]
+31.8 +13.2 32 +33 +36 жарко 1017.6 1001.3
15 18.08 С 2 20 км 10/0
[Cs]
+25.8 +15.4 53 +29 +29 душно 1019.8 1003.2 +32.1
21 18.08 С 1 н/о н/о +14.2 +12.5 90 +14 +14 1022.2 1004.8
03 19.08 СВ 2 20 км 9/9 600 м
[Sc]
+17.7 +15.7 88 +18 +18 1024.6 1007.4 +13.0
09 19.08 СВ 2 50 км 10/3 600 м
[Cu Sc Ci]
+25.4 +14.7 52 +28 +34 жарко 1024.7 1007.9
15 19.08 СВ 1 20 км 10/6 600 м
[Sc Ac trans Ci]
+23.4 +13.6 54 +27 +27 душно 1024.9 1008.1 +26.5
21 19.08 С 3 н/о н/о +16.9 +14.6 86 +17 +17 1026.0 1008.8
03 20.08 Ю 1 20 км 10/10 600 м
[Cb cap]
+17.4 +15.0 86 +18 +18 1024.5 1007.3 +16.4 3
09 20.08 С 7-15
{15}
10 км гроза, ливневой дождь 10/10 600 м
[Cb cap]
+20.2 +17.3 83 +23 +23 комфорт 1022.2 1005.2
12 20.08 ЮВ 4
{15}
20 км {гроза, ливн. осадки} 10/10 600 м
[Cb cap]
+19.3 +17.3 88 +21 +21 комфорт 1019.3 1002.3
15 20.08 ЮВ 2 20 км 9/9 600 м
[Cb cap]
+18.8 +16.4 86 +21 +21 комфорт 1017.8 1000.8 +23.5 17
21 20.08 В 2 н/о н/о +16.9 +15.2 90 +17 +17 1015.3 998.2
00 21.08 В 1 н/о н/о +16.2 +14.3 89 +17 +17 1014.3 997.2
03 21.08 В 3 20 км в посл. час ливневой дождь 10/10 600 м
[Cb cap]
+16.9 +15.1 89 +17 +17 1014.5 997.5 +16.0 1
06 21.08 В 5-10
{10}
20 км в посл. час ливневой дождь 10/10 600 м
[Cb cap]
+16.1 +13.8 86 +15 +15 1016.0 998.9 +15.8
09 21.08 СВ 4
{11}
50 км 6/6 600 м
[Cb cap]
+21.0 +11.7 55 +23 +26 комфорт 1016.5 999.6
12 21.08 С 4 50 км 4/4 600 м
[Cb cap]
+22.6 +9.2 42 +24 +25 комфорт 1016.8 1000.0
15 21.08 СВ 3 20 км 1/1 600 м
[Sc diur, vesp]
+17.8 +10.8 64 +18 +18 1018.6 1001.5 +22.8 0.8
18 21.08 С 2 н/о н/о +10.1 +8.2 88 +9 +9 1020.3 1002.7
21 21.08 СЗ 2 н/о н/о +8.7 +7.1 90 +7 +7 1020.6 1002.9
00 22.08 СЗ 2 н/о н/о +9.3 +7.8 90 +8 +8 1020.8 1003.1
03 22.08 СЗ 3 50 км 8/4 600 м
[Sc Ac As Ci]
+13.8 +11.6 87 +13 +13 1020.8 1003.4 +8.6
06 22.08 С 4 50 км 8/5 600 м
[Cu hum Ci]
+19.8 +12.1 61 +21 +24 комфорт 1020.2 1003.2
09 22.08 С 5
{12}
50 км 8/3 600 м
[Cu hum Ci]
+22.2 +11.4 50 +24 +28 комфорт 1019.4 1002.6
12 22.08 С 4
{10}
50 км 3/3 600 м
[Cu med, cong Ci]
+23.1 +10.9 46 +25 +27 комфорт 1019.3 1002.5
15 22.08 СЗ 1 20 км 3/0
[Ci]
+18.4 +11.8 65 +20 +20 1020.1 1003.0 +23.8
21 22.08 штиль 0 н/о н/о +9.2 +7.6 90 +8 +8 1021.8 1004.1
03 23.08 штиль 0 50 км 3/0
[Ci]
+14.9 +13.2 90 +15 +18 1021.9 1004.6 +7.5
09 23.08 ЮЗ 6 50 км 10/0
[Ci]
+25.0 +7.7 33 +25 +28 комфорт 1019.9 1003.3
15 23.08 ЮЗ 1 20 км 1/0
[Ci]
+21.7 +11.0 51 +24 +24 комфорт 1016.7 999.8 +27.7
21 23.08 СЗ 1 н/о н/о +14.4 +11.2 81 +15 +15 1017.4 1000.2
03 24.08 СЗ 3 50 км 9/0
[Ci]
+17.5 +12.5 72 +18 +19 1020.1 1003.0 +12.9
09 24.08 СЗ 6 50 км 9/0
[Ci]
+22.6 +7.9 39 +24 +27 комфорт 1019.1 1002.2
12 24.08 СЗ 4
{10}
50 км 9/0
[Ac trans Ci]
+23.3 +6.7 34 +24 +26 комфорт 1018.7 1001.9
15 24.08 СЗ 2 20 км 9/0
[Ci]
+16.6 +7.0 53 +17 +17 1019.7 1002.5 +23.4
21 24.08 штиль 0 н/о н/о +5.9 +4.3 89 +5 +5 1020.4 1002.5

 

Местоположение метеостанции Целинное (Курганская область, Россия): широта 54.50 долгота 63.67 высота над уровнем моря 145 м.

В архиве по умолчанию представлена погода в Целинном за последнюю неделю. Архивные данные за месяц целиком и за предыдущие месяцы, начиная с января 2011 года, Вы можете получить, выбрав интересующий диапазон дат из раскрывающегося списка и нажав кнопку "Ввод!".


*Определитесь, кто Вы:
робот инопланетянин человек

Внимание! Время в таблицах - всемирное. Для получения местного времени необходимо прибавить поправку, которая равна 5 ч.

Смотрите также архив погоды в соседних городах и на ближайших метеорологических станциях:

Погода в Октябрьском (Челябинская область, Россия) (63 км)
Погода в Куртамыше (Курганская область, Россия) (68 км)
Погода в Звериноголовском (Курганская область, Россия) (78 км)
Погода в Шумихе (Курганская область, Россия) (84 км)
Погода в Карабалыке (Костанайская область, Казахстан) (130 км)
Погода в Пресногорьковке (Костанайская область, Казахстан) (136 км)
Погода в Троицке (Челябинская область, Россия) (141 км)
Погода в Костанае (Костанайская область, Казахстан) (142 км)
Погода в Костанае 2 (Костанайская область, Казахстан) (145 км)
Погода в Южноуральске (Челябинская область, Россия) (150 км)

Пояснения к столбцам:

Ветер - указаны скорость ветра в м/с - средняя за 10 мин, порывы в срок и между сроками (в фигурных скобках) и направление, откуда дует ветер: С - северный, СВ - северо-восточный, В - восточный, ЮВ - юго-восточный, Ю - южный, ЮЗ - юго-западный, З - западный, СЗ - северо-западный.
Видимость - горизонтальная дальность видимости в метрах или километрах. При видимости от 1 до 10 км при отсутствии осадков обычно наблюдается дымка, при ухудшении видимости до 1 км и менее - туман. В сухую погоду видимость может ухудшаться дымом, пылью или мглою.
Явления - указаны атмосферные явления, наблюдавшиеся в срок или в последний час перед сроком; фигурными скобками обозначены явления, наблюдавшиеся между сроками (за 1-3 часа до срока); квадратными скобками обозначены град или гололедные отложения с указанием их диаметра в мм.
Облачность - указаны через наклонную черту общая и нижняя облачность в баллах и высота нижней границы облаков в метрах; квадратными скобками обозначены формы облаков: Ci - перистые, Cs - перисто-слоистые, Cc - перисто-кучевые, Ac - высококучевые, As - высокослоистые, Sc - слоисто-кучевые, Ns - слоисто-дождевые, Cu - кучевые, Cb - кучево-дождевые. Подробнее классификацию облаков см. в Атласе облаков (PDF).
T - Температура воздуха - температура, измеренная на высоте 2 м над землей.
Td - Температура точки росы - температура, при понижении до которой содержащийся в воздухе водяной пар достигнет насыщения.
f - Относительная влажность воздуха - влажноcть воздуха, измеренная на высоте 2 м над землей.
Te - Эффективная температура - температура, которую ощущает одетый по сезону человек в тени. Характеристика душности погоды. При расчете учитывается влияние влажности воздуха и скорости ветра на теплоощущения человека.
Tes - Эффективная температура на солнце - температура, которую ощущает человек, с поправкой на солнечный нагрев. Характеристика знойности погоды. Зависит от высоты солнца над горизонтом, облачности и скорости ветра. Ночью, в пасмурную погоду, а также при ветре 12 м/с и более поправка равна нулю.
P - Атмосферное давление - приведенное к уровню моря атмосферное давление.
Po - Атмосферное давление - измеренное на уровне метеостанции атмосферное давление.
Tmin - Минимальная температура - минимум температуры воздуха на высоте 2 м над землей.
Tmax - Максимальная температура - максимум температуры воздуха на высоте 2 м над землей.
R - Количество осадков - Количество выпавших осадков за период времени, мм. При наведении курсора мыши на число - период времени, за который выпало указанное количество осадков.
R24 - Количество осадков - Количество выпавших осадков за 24 часа, мм.
S - Снежный покров - Высота снежного покрова, см. При наведении курсора мыши на число - состояние снежного покрова и степень покрытия местности в баллах.